Weather Roundup
Issued by NWS

Home | Current Version | Previous Version | Graphics & Text | Print | Product List | Glossary Off
Versions: 1 2 3 4 5 6 7 8 9 10 11 12 13 14 15 16 17 18 19 20 21 22 23 24 25 26 27 28 29 30 31 32 33 34 35 36 37 38 39 40 41 42 43 44 45 46 47 48 49 50

000
NZUS93 KARX 170010
HRRWXR

CURRENT HOURLY OBSERVATIONS ACROSS
MUCH OF THE UPPER MISSISSIPPI VALLEY
NATIONAL WEATHER SERVICE LA CROSSE WI
600 PM CST THU NOV 16 2017


...SOUTHEAST MINNESOTA...


CITY           SKY/WX    TMP DP  RH WIND       PRES   REMARKS
ROCHESTER      CLOUDY    31  27  85 SE14      30.07F WCI  21
ROCHESTER/MAYO CLOUDY    32  26  80 SE12G23   30.09R WCI  23
WINONA         PTCLDY    34  28  80 SE12      30.14F WCI  25
AUSTIN         PTCLDY    30  27  86 S8        30.07F WCI  23
ALBERT LEA     CLOUDY    30  25  80 SE16      30.06S WCI  19
DODGE CENTER   CLOUDY    30  27  86 SE15      30.06F WCI  19
PRESTON        CLOUDY    31  25  79 SE10      30.11F WCI  22
OWATONNA       CLOUDY    32  27  80 SE14      30.05S WCI  22
FARIBAULT      CLOUDY    32  27  80 SE13      30.06R WCI  22
$$

...ELSEWHERE IN MINNESOTA...


CITY           SKY/WX    TMP DP  RH WIND       PRES   REMARKS
MINNEAPOLIS    CLOUDY    32  26  78 SE14      30.08R WCI  22
INTNL FALLS    CLOUDY    24  19  81 SE16      30.00F WCI  11
DULUTH         CLOUDY    26  22  84 SE18      30.05F WCI  13
RED WING       CLOUDY    34  23  64 SE20      30.07F WCI  22
REDWOOD FALLS  CLOUDY    30  25  81 SE18      29.94F WCI  18
MANKATO        CLOUDY    31  27  85 SE17      30.03F WCI  19
WORTHINGTON    CLOUDY    29  25  85 SE20      29.91F WCI  16
FAIRMONT       CLOUDY    31  27  85 SE15G23   30.00F WCI  20
$$

...SOUTHWEST WISCONSIN...


CITY           SKY/WX    TMP DP  RH WIND       PRES   REMARKS
LA CROSSE      CLOUDY    35  26  69 SE7       30.18S WCI  29
PRAIRIE DU CHI PTCLDY    35  26  70 E7        30.18F WCI  29
BOSCOBEL       CLOUDY    37  27  67 CALM      30.21R
LONE ROCK      CLOUDY    33  28  81 E8        30.20F WCI  26
PLATTEVILLE    CLOUDY    33  30  88 SE7       30.20R WCI  27
FORT MC COY    CLOUDY    29  25  83 SE3       30.19S
CAMP DOUGLAS   CLOUDY    26  21  83 E9        30.18F WCI  17
MAUSTON-NEW LI CLOUDY    31  25  78 SE3       30.19F
VIROQUA        MOCLDY    32  29  89 SE6       30.16R WCI  26
WIS DELLS      PTCLDY    29  23  78 CALM      30.21S
$$

...ELSEWHERE IN WISCONSIN...


CITY           SKY/WX    TMP DP  RH WIND       PRES   REMARKS
MILWAUKEE      CLOUDY    36  28  73 E7        30.26R WCI  30
MADISON        MOCLDY    31  25  78 SE6       30.22S WCI  25
GREEN BAY      CLOUDY    33  26  75 E6        30.26R WCI  28
EAU CLAIRE     PTCLDY    32  23  69 E9        30.13F WCI  24
BLACK RVR FLS  FAIR      28  21  77 E3        30.17F
MEDFORD        CLOUDY    27  23  83 E6        30.16F WCI  21
WAUSAU         CLOUDY    28  23  81 E6        30.18S WCI  22
WIS RAPIDS     CLOUDY    28  23  81 CALM      30.21R
MARSHFIELD     CLOUDY    30  22  72 E5        30.17R WCI  25
RICE LAKE      CLOUDY    30  24  78 E14       30.12F WCI  20
$$

...NORTHEAST IOWA...


CITY           SKY/WX    TMP DP  RH WIND       PRES   REMARKS
WATERLOO       PTCLDY    34  26  72 SE12      30.14R WCI  25
DUBUQUE        CLOUDY    32  26  78 S8        30.19S WCI  25
DECORAH        CLOUDY    34  28  80 SE8       30.12F WCI  27
MASON CITY     CLOUDY    31  25  78 SE16      30.09F WCI  20
CHARLES CITY   CLOUDY    32  30  93 SE10      30.13R WCI  24
OELWEIN        CLOUDY    34  32  93 SE10      30.15R WCI  26
$$

...ELSEWHERE IN IOWA...


CITY           SKY/WX    TMP DP  RH WIND       PRES   REMARKS
DES MOINES     PTCLDY    36  28  73 E13       30.08F WCI  27
IOWA CITY      PTCLDY    35  28  75 S12       30.19F WCI  27
FORT DODGE     CLOUDY    31  27  85 SE14      30.04F WCI  21
MARSHALLTOWN   CLOUDY    32  28  85 SE9       30.12R WCI  24
CEDAR RAPIDS   CLOUDY    34  28  79 SE10      30.15F WCI  26
$$

...NORTHERN ILLINOIS...


CITY           SKY/WX    TMP DP  RH WIND       PRES   REMARKS
CHICAGO-OHARE  CLOUDY    37  27  67 E6        30.25S WCI  32
CHICAGO-MIDWAY CLOUDY    38  29  70 E7        30.26S WCI  33
MOLINE         CLOUDY    32  26  78 E7        30.22R WCI  26
ROCKFORD       CLOUDY    34  27  75 SE9       30.26S WCI  27
PEORIA         CLOUDY    35  29  78 SE7       30.25R WCI  29
$$

NOTE: "FAIR" INDICATES FEW OR NO CLOUDS BELOW 12,000 FEET WITH NO
SIGNIFICANT WEATHER AND/OR OBSTRUCTIONS TO VISIBILITY. WIND
SPEEDS ARE IN MILES-PER-HOUR.




USA.gov is the U.S. government's official web portal to all federal, state and local government web resources and services.